FW6182 Weather Reports


time (UTC)temp
F
wind
direction
speed
knots
gust
knots
rain 1hr
in
rain 24hr
in
rain mn
in
humidity
%
barometer
mb
20260505140318 50 139 5.2 11.3 0.00 0.00 0.04 82 480.0
20260505130151 50 162 8.7 16.5 0.03 0.00 0.04 80 650.4
20260505123103 50 180 6.1 11.3 0.03 0.00 0.04 84 652.6
20260505122602 50 162 6.1 11.3 0.02 0.00 0.03 83 699.9
20260505122102 50 178 7.0 11.3 0.01 0.00 0.02 82 755.0
20260505121601 50 93 4.3 11.3 0.00 0.00 0.01 81 853.3
20260505114440 50 167 7.0 13.0 0.00 0.00 0.01 80 689.9
20260505113939 51 179 7.8 15.6 0.00 0.00 0.01 80 736.1
20260505102140 52 138 7.0 13.9 0.00 0.00 0.01 82 619.3
20260505100607 52 158 6.1 11.3 0.00 0.00 0.01 84 602.7
20260505095034 53 133 5.2 11.3 0.00 0.00 0.01 82 558.2
20260505094533 53 124 4.3 11.3 0.00 0.00 0.01 82 554.9
20260505093001 53 74 6.1 11.3 0.00 0.00 0.01 82 543.6
20260505091945 53 122 7.8 15.6 0.00 0.00 0.01 82 596.2
20260505090928 53 137 7.8 12.2 0.00 0.00 0.01 83 589.0
20260505084838 53 157 7.0 17.4 0.01 0.00 0.01 83 609.5
20260505084337 53 153 9.6 17.4 0.01 0.00 0.01 83 614.4
20260505081732 55 130 9.6 13.9 0.01 0.00 0.01 85 524.6
20260505081231 55 94 6.1 13.9 0.01 0.00 0.01 85 526.2
20260505080730 55 94 7.0 15.6 0.01 0.00 0.01 85 565.3
20260505080229 55 134 7.0 18.2 0.01 0.00 0.01 84 599.7
20260505075728 56 139 8.7 18.2 0.01 0.00 0.01 84 620.1
20260505075227 56 153 10.4 18.2 0.00 0.00 0.00 83 617.4
20260505073654 60 106 13.0 25.2 0.00 0.00 0.00 74 772.8
20260505072637 67 7 17.4 13.9 0.00 0.00 0.00 62 1161.5
20260505072137 69 358 5.2 11.3 0.00 0.00 0.00 71 1236.2
20260505071636 69 358 2.6 11.3 0.00 0.00 0.00 70 1235.5
20260505071135 69 359 4.3 11.3 0.00 0.00 0.00 70 1236.3
20260505070634 69 359 5.2 11.3 0.00 0.00 0.00 70 1234.4
20260505070133 69 359 4.3 11.3 0.00 0.00 0.00 70 1231.8
20260505065633 69 359 4.3 11.3 0.00 0.00 0.00 70 1225.2
20260505064616 69 355 4.3 11.3 0.00 0.00 0.00 70 1209.5
20260505063559 69 343 3.5 11.3 0.00 0.00 0.00 70 1153.5
20260505063058 69 354 3.5 11.3 0.00 0.00 0.00 70 1198.9
20260505062042 69 0 2.6 11.3 0.00 0.00 0.00 70 1228.1
20260505061026 69 359 3.5 11.3 0.00 0.00 0.00 70 1217.4
20260505055453 69 355 3.5 10.4 0.00 0.00 0.00 70 1221.4
20260505054953 69 357 3.5 10.4 0.00 0.00 0.00 70 1219.8
20260505053936 69 354 3.5 10.4 0.00 0.00 0.00 70 1191.9
20260505052919 70 354 5.2 13.9 0.00 0.00 0.00 69 1179.7
20260505050314 70 333 3.5 10.4 0.00 0.00 0.00 69 1157.7
20260505041723 71 341 4.3 10.4 0.00 0.00 0.00 67 1127.1
20260505041222 71 323 3.5 10.4 0.00 0.00 0.00 67 1129.4
20260505040206 71 338 4.3 10.4 0.00 0.00 0.00 66 1175.0
20260505035149 72 320 4.3 13.0 0.00 0.00 0.00 65 1149.0
20260505034649 72 351 5.2 13.0 0.00 0.00 0.00 65 1183.7
20260505033633 72 325 3.5 11.3 0.00 0.00 0.00 65 1179.8
20260505033133 72 356 2.6 11.3 0.00 0.00 0.00 65 1205.3
20260505032632 72 354 3.5 11.3 0.00 0.00 0.00 65 1205.8
20260505032131 72 353 3.5 11.3 0.00 0.00 0.00 65 1203.8
20260505031630 72 352 4.3 11.3 0.00 0.00 0.00 65 1211.1
20260505023439 73 355 4.3 12.2 0.00 0.00 0.00 63 1198.2
20260505022422 73 356 5.2 11.3 0.00 0.00 0.00 63 1223.5
20260505020849 74 356 7.0 15.6 0.00 0.00 0.00 63 1222.2
20260505013214 75 347 7.0 21.7 0.00 0.00 0.00 62 1175.3
20260505011641 76 323 5.2 17.4 0.00 0.00 0.00 63 1166.4
20260505011140 76 349 7.8 17.4 0.00 0.00 0.00 62 1182.0
20260505010639 76 338 6.1 15.6 0.00 0.00 0.00 62 1171.1
20260505010138 76 342 8.7 18.2 0.00 0.00 0.00 62 1183.8
20260505005637 77 352 8.7 18.2 0.00 0.00 0.00 61 1190.3
20260505005136 77 349 10.4 17.4 0.00 0.00 0.00 61 1188.6
20260505004119 77 343 10.4 23.5 0.00 0.00 0.00 60 1186.7
20260505003103 78 350 10.4 17.4 0.00 0.00 0.00 60 1196.6
20260505001014 79 356 7.0 13.9 0.00 0.00 0.00 59 1203.9
20260504235957 79 350 7.8 16.5 0.00 0.00 0.00 57 1183.5
20260504234940 80 343 9.6 16.5 0.00 0.00 0.00 57 1189.8
20260504234439 80 354 6.1 19.1 0.00 0.00 0.00 57 1194.8
20260504232907 80 351 7.0 15.6 0.00 0.00 0.00 57 1200.1
20260504232406 81 354 7.0 15.6 0.00 0.00 0.00 56 1188.2
20260504231905 81 338 8.7 16.5 0.00 0.00 0.00 55 1167.7
20260504231405 81 351 8.7 16.5 0.00 0.00 0.00 55 1182.0
20260504230904 81 345 5.2 12.2 0.00 0.00 0.00 56 1180.4
20260504230403 81 344 5.2 15.6 0.00 0.00 0.00 55 1173.8
20260504225346 82 349 7.0 13.9 0.00 0.00 0.00 54 1163.0
20260504224845 82 342 7.8 13.9 0.00 0.00 0.00 53 1162.8
20260504223828 84 350 9.6 15.6 0.00 0.00 0.00 50 1175.3
20260504221224 84 339 7.8 13.9 0.00 0.00 0.00 50 1207.5
20260504220723 84 355 7.8 15.6 0.00 0.00 0.00 50 1229.7
20260504215150 83 359 8.7 17.4 0.00 0.00 0.00 48 1231.4
20260504214133 84 358 10.4 17.4 0.00 0.00 0.00 47 1235.1
20260504213116 83 359 14.8 20.0 0.00 0.00 0.00 47 1230.6
20260504212616 83 359 13.0 19.1 0.00 0.00 0.00 47 1222.1
20260504211044 83 347 10.4 17.4 0.00 0.00 0.00 49 1198.7
20260504205511 83 351 9.6 18.2 0.00 0.00 0.00 50 1183.8
20260504203422 85 341 9.6 16.5 0.00 0.00 0.00 49 1180.0
20260504202921 84 345 7.8 17.4 0.00 0.00 0.00 49 1179.7
20260504202421 83 342 11.3 19.1 0.00 0.00 0.00 49 1179.1
20260504201920 84 346 7.8 19.1 0.00 0.00 0.00 49 1176.9
20260504200903 84 339 9.6 19.1 0.00 0.00 0.00 49 1182.4
20260504194814 84 321 7.8 17.4 0.00 0.00 0.00 48 1171.3
20260504194313 84 357 6.1 15.6 0.00 0.00 0.00 49 1194.3
20260504193256 83 357 10.4 17.4 0.00 0.00 0.00 50 1219.9
20260504191723 82 355 9.6 16.5 0.00 0.00 0.00 50 1214.9
20260504191222 82 353 9.6 19.1 0.00 0.00 0.00 51 1204.9
20260504190721 82 339 11.3 19.1 0.00 0.00 0.00 49 1204.0
20260504190220 81 357 11.3 21.7 0.00 0.00 0.00 51 1218.7
20260504184647 81 358 11.3 20.0 0.00 0.00 0.00 49 1228.1
20260504183114 82 358 7.0 17.4 0.00 0.00 0.00 51 1232.8
20260504181541 80 351 12.2 19.1 0.00 0.00 0.00 52 1217.1
20260504181040 80 352 9.6 19.1 0.00 0.00 0.00 52 1226.0
20260504180539 80 356 12.2 19.1 0.00 0.00 0.00 50 1224.1
20260504180038 79 354 10.4 21.7 0.00 0.00 0.00 51 1216.0
20260504173950 79 355 12.2 19.1 0.00 0.00 0.00 52 1226.0
20260504172933 79 359 11.3 20.0 0.00 0.00 0.00 50 1232.2
20260504171916 79 354 11.3 19.1 0.00 0.00 0.00 52 1229.3
20260504171416 78 359 10.4 19.1 0.00 0.00 0.00 53 1235.6
20260504150955 73 356 10.4 16.5 0.00 0.00 0.00 54 1221.8